Theta_e
304 307 309 307 305 306 300 301 302 308 309 311 315 322 325 330 334 341 342 342 345 347 349 345 342 344 349 352 356 355 351 351 354 359 359 360 358 358 358 360 358 356 354 351
303 309 310 308 306 306 305 310 315 313 311 318 317 318 327 333 335 333 333 334 335 335 349 347 348 347 349 352 357 356 356 358 358 358 359 358 359 357 360 359 357 355 352 349
299 307 308 300 306 309 307 315 316 309 314 320 319 320 324 323 332 333 334 335 334 333 339 346 349 349 351 353 358 354 355 355 359 359 359 358 360 357 359 357 357 354 351 348
304 302 296 307 316 317 316 318 317 317 320 320 319 321 325 328 328 332 333 334 335 332 334 341 351 350 353 354 355 356 357 355 357 358 357 359 358 358 357 356 355 352 350 346
303 300 307 311 313 313 312 312 321 320 317 320 323 323 320 326 333 332 332 332 332 333 341 345 354 356 354 354 355 357 357 357 349 348 356 356 355 354 352 352 353 352 350 344
304 300 300 309 317 322 317 309 321 319 316 316 319 314 320 329 332 333 333 331 327 332 342 342 343 352 353 355 354 353 355 358 352 346 346 354 355 356 354 354 351 350 348 347
307 305 307 315 320 322 308 312 324 321 320 319 318 322 328 332 332 332 330 329 331 334 335 335 343 344 345 350 351 356 358 357 356 350 344 350 357 356 355 353 351 347 345 344
310 306 302 322 320 316 322 324 329 327 322 321 328 329 330 331 330 330 329 329 330 334 337 344 348 347 346 350 353 354 355 354 356 356 346 343 348 355 351 351 349 345 341 335
311 311 317 322 320 324 326 326 327 327 328 326 326 328 329 329 327 327 328 329 334 332 338 340 343 344 341 348 349 349 349 353 351 356 356 350 347 352 350 350 344 340 339 337
313 317 316 321 325 327 326 324 325 325 327 325 325 329 327 326 327 326 327 332 335 334 334 334 337 339 342 345 350 351 349 350 350 352 351 354 353 353 350 344 342 340 338 333
316 321 321 327 327 327 327 328 328 329 328 327 324 325 325 327 328 329 333 333 331 330 330 332 336 338 339 337 346 350 348 346 346 343 348 347 342 340 350 349 341 336 334 334
313 319 321 321 325 327 326 326 327 325 325 327 329 327 329 329 331 333 332 332 331 331 336 331 333 335 339 343 346 348 345 345 343 345 344 343 343 331 312 317 316 315 317 329
314 318 318 319 320 320 317 320 326 324 324 322 323 324 324 328 331 330 330 330 335 333 332 335 335 335 342 347 350 347 342 340 340 336 339 338 337 335 332 320 311 315 311 313
324 322 320 321 319 322 321 319 320 320 319 319 318 320 324 326 329 329 331 332 335 334 335 336 336 337 341 346 348 344 341 329 340 337 336 336 337 336 335 332 326 325 315 317
325 323 322 323 323 322 323 323 319 318 320 320 325 330 333 333 333 334 336 336 336 335 334 334 335 337 343 346 346 342 341 340 337 338 336 333 335 335 333 333 330 330 320 312
323 324 325 324 323 324 323 322 319 320 322 325 332 333 334 334 334 335 336 337 334 334 337 337 337 340 343 342 339 329 329 328 333 336 333 334 330 329 330 330 330 330 324 324
319 319 321 322 323 323 324 326 327 328 331 332 333 335 334 333 335 337 338 338 337 336 337 338 341 344 346 332 329 323 321 324 332 332 332 331 330 327 325 324 326 329 329 325
323 323 323 323 322 322 323 326 328 328 330 331 333 334 333 333 332 334 337 337 337 339 340 340 340 338 339 332 329 326 327 334 333 331 331 329 327 324 325 323 321 321 316 311
325 323 324 325 324 323 324 325 327 329 331 331 331 331 334 332 333 334 336 335 335 334 336 339 333 337 331 332 328 324 322 318 331 332 331 324 323 325 325 324 320 320 314 312
325 326 325 325 326 325 324 326 328 330 331 330 332 331 329 331 333 333 333 333 335 336 336 334 334 335 336 334 330 330 329 322 328 332 330 328 326 327 326 319 322 322 315 315
324 325 324 324 324 326 326 327 329 329 331 331 331 329 329 331 333 333 330 328 332 328 330 331 328 323 326 325 329 330 325 328 332 332 330 330 330 329 328 327 325 323 317 317
325 324 324 325 325 324 326 328 329 329 330 331 331 330 329 329 330 331 332 330 331 321 328 330 323 320 321 322 327 332 334 332 330 331 333 331 330 330 329 328 327 326 321 318
326 326 326 325 324 325 327 328 329 330 328 329 328 329 329 329 330 327 326 332 333 325 328 325 319 319 318 322 325 325 327 332 334 333 334 331 330 331 331 329 329 329 324 318
327 327 327 329 327 326 325 329 330 329 329 328 330 331 327 327 329 332 335 324 321 320 323 320 319 317 315 322 323 322 322 324 330 333 334 320 332 331 332 332 329 332 332 322
328 328 328 327 325 325 324 327 325 324 325 325 327 330 330 331 329 332 332 332 320 324 325 320 318 317 321 322 322 323 323 323 326 333 333 333 333 333 332 333 333 332 332 332
327 326 326 326 325 326 324 325 324 325 325 325 326 328 330 328 326 328 330 324 326 323 323 322 320 319 320 321 322 324 324 326 326 329 331 333 334 334 330 327 330 331 331 329
324 318 326 326 327 326 326 324 324 325 325 323 324 328 325 323 323 322 319 323 323 323 322 321 321 318 318 320 323 324 324 326 318 327 331 332 332 332 331 331 329 330 332 329
Wind_Speed
2 5 5 5 6 10 5 3 5 14 16 10 20 26 22 11 8 11 10 10 8 6 6 5 5 6 7 6 5 7 9 10 14 15 15 13 13 8 8 10 9 10 10 7
6 12 16 16 9 10 6 16 16 22 11 4 22 25 32 15 8 9 8 8 7 6 5 5 5 5 5 5 3 4 5 9 11 14 13 11 8 11 11 13 13 13 11 10
4 9 14 5 5 7 4 9 15 7 9 12 14 25 18 11 4 8 7 7 4 4 6 7 7 7 5 4 3 3 3 2 4 8 10 11 10 12 12 13 11 13 12 13
6 4 2 4 14 17 19 12 20 20 17 15 17 19 12 5 9 8 7 5 1 2 4 7 6 6 5 5 4 3 3 2 2 3 6 7 9 8 8 9 11 10 11 12
6 4 4 10 9 14 4 3 14 18 16 17 10 7 7 13 8 9 7 4 3 5 5 7 8 6 6 5 5 4 5 4 6 6 4 5 6 6 5 7 8 9 11 12
3 7 4 14 26 16 4 3 12 12 14 14 8 4 6 8 10 9 7 5 4 4 6 7 4 6 5 4 5 5 6 6 7 7 6 6 8 9 6 8 10 9 11 12
3 8 4 3 10 12 9 4 5 21 17 13 5 5 5 8 6 8 6 7 6 6 5 3 3 4 3 6 5 2 5 6 6 8 8 8 9 9 8 9 9 9 9 6
5 6 2 5 8 9 3 4 9 10 16 14 10 12 10 8 8 8 7 7 7 6 5 5 7 6 4 3 1 3 3 1 5 7 7 7 7 7 6 10 11 10 7 9
4 5 5 5 5 4 4 4 6 7 5 6 8 8 9 8 9 7 8 6 5 7 6 4 4 3 2 4 3 2 2 4 3 4 7 9 10 9 7 10 9 10 11 10
4 5 8 3 5 6 8 8 7 6 6 6 8 8 7 7 7 7 7 8 7 7 5 3 3 4 3 5 7 6 5 4 4 5 4 5 5 5 6 7 7 10 12 11
7 6 2 8 9 8 9 7 8 10 8 6 5 6 5 4 7 7 8 6 6 5 2 2 2 4 6 7 6 6 4 4 2 2 1 4 2 1 8 10 13 11 11 11
3 5 7 6 9 9 9 8 9 11 12 12 10 8 8 6 5 6 7 6 5 4 5 3 5 7 7 8 6 6 4 3 3 1 3 3 4 2 8 5 7 11 14 11
5 7 7 5 8 10 8 9 6 6 6 7 8 6 4 2 4 7 7 6 5 6 5 5 6 7 8 8 6 6 5 5 3 3 3 4 3 3 4 3 2 5 7 9
8 7 8 7 4 7 8 8 7 7 7 7 6 8 7 7 7 5 5 3 3 1 3 5 6 8 9 8 7 5 5 8 4 4 4 4 4 4 3 4 4 3 6 6
7 6 6 7 9 6 4 5 6 7 6 7 6 6 7 7 7 6 5 5 5 5 7 6 6 9 7 6 5 3 3 6 5 4 5 6 4 4 4 5 6 6 3 1
7 8 9 8 8 8 8 8 7 7 7 7 8 7 5 3 2 3 5 5 5 6 7 6 7 8 7 2 8 10 9 17 17 6 3 4 5 4 4 6 8 8 9 11
8 8 8 9 8 8 8 7 7 7 8 8 7 7 7 7 7 7 7 6 7 8 7 6 8 8 8 2 9 4 2 4 10 3 6 7 5 5 6 6 6 8 10 11
7 8 8 8 9 9 10 10 10 11 6 6 7 7 8 7 6 7 7 7 8 9 7 8 8 7 5 8 7 7 7 8 6 3 4 8 5 4 5 5 6 5 1 4
9 7 6 7 7 7 8 8 6 7 8 8 9 7 6 6 6 6 7 7 7 8 10 8 9 9 5 5 7 5 4 4 6 6 7 8 5 5 4 5 6 5 5 7
7 8 9 8 8 6 6 7 7 5 6 6 7 7 7 7 7 7 7 8 8 8 7 6 6 9 10 6 8 5 4 2 5 9 7 6 5 5 5 7 6 6 6 7
7 6 7 7 6 6 7 6 6 5 6 6 6 6 6 7 7 7 8 6 8 7 7 9 9 7 6 9 9 5 6 7 5 8 8 8 7 6 6 7 7 6 7 7
6 6 6 5 5 6 7 7 4 6 7 7 7 8 7 7 7 7 6 1 2 7 5 5 6 9 8 14 6 8 7 6 7 7 7 7 8 6 7 7 7 8 8 9
5 4 4 5 6 7 8 6 4 5 7 7 8 8 3 3 4 4 6 4 3 6 4 4 7 12 15 5 7 9 11 11 9 5 7 8 8 7 6 7 6 6 6 9
3 5 6 5 6 8 5 5 4 6 6 7 5 3 2 2 3 3 5 2 4 5 4 6 9 12 11 5 6 8 10 10 10 7 7 8 6 6 6 8 8 6 5 6
6 6 7 7 7 6 3 4 6 6 6 5 6 5 6 4 3 5 4 3 4 6 5 7 9 10 6 8 9 10 11 10 9 6 6 6 7 7 7 5 5 4 2 6
7 5 6 8 7 3 3 4 3 4 4 5 5 6 6 8 8 8 7 7 6 7 4 4 4 6 7 7 10 12 15 9 6 6 6 6 6 5 6 6 4 5 6 7
3 2 5 6 6 6 4 3 3 4 5 6 5 5 6 6 6 6 7 6 5 5 4 4 4 5 6 7 9 11 14 12 10 5 3 4 5 6 6 6 4 6 5 6
Wind_Direction
275 287 255 288 228 270 274 250 111 95 86 42 32 21 342 296 90 86 77 73 69 80 86 67 65 98 91 71 128 166 170 175 182 184 184 182 183 165 161 160 163 162 160 160
11 46 321 269 215 244 250 100 86 89 78 166 82 46 306 305 75 77 77 69 57 45 92 94 64 114 102 104 95 96 146 180 180 183 181 178 159 169 166 169 164 163 166 164
243 265 264 18 318 337 256 55 133 111 172 176 134 170 247 285 79 100 94 90 52 26 106 91 91 115 127 136 123 143 158 162 147 162 165 170 165 173 177 175 165 169 167 161
200 67 33 303 10 61 73 91 102 118 156 185 173 207 173 241 264 117 116 119 202 327 112 113 115 114 119 133 134 155 163 199 142 165 176 173 183 181 170 165 164 171 169 167
115 89 319 3 342 345 66 145 146 142 162 178 179 48 324 252 194 130 132 122 17 50 105 71 95 115 119 146 164 164 195 173 109 103 121 175 181 179 169 163 169 174 174 171
152 95 83 266 302 330 349 71 169 150 164 150 127 132 253 174 121 127 119 108 47 47 95 85 109 105 101 184 164 204 224 206 180 174 181 200 191 198 187 175 183 175 174 183
28 73 42 263 287 298 56 270 71 152 154 152 172 199 231 121 118 127 137 122 82 80 104 79 147 117 81 72 90 258 224 231 200 193 203 210 207 205 179 167 177 176 178 171
40 102 178 309 9 57 266 24 73 122 172 194 175 150 157 141 131 133 138 129 128 97 83 63 80 88 104 101 136 28 11 57 246 204 193 200 214 197 181 172 179 174 159 130
107 187 233 221 177 117 78 30 39 60 88 132 150 136 140 141 140 158 135 121 104 103 102 82 68 41 269 239 241 264 306 289 265 285 198 195 201 205 185 189 170 163 159 162
132 247 235 277 97 89 61 33 6 350 143 89 83 146 152 162 165 145 135 117 116 95 83 48 19 345 296 298 263 221 236 262 279 252 248 205 189 175 182 165 180 181 173 178
70 4 30 48 63 46 24 43 21 13 23 65 76 73 123 113 126 127 130 129 120 128 151 244 277 279 278 285 273 229 222 265 299 344 27 302 303 224 182 185 176 180 196 187
121 14 100 30 8 24 30 22 45 47 25 14 27 19 34 41 118 133 144 164 165 168 160 225 259 262 267 266 256 199 224 260 196 164 276 256 228 224 30 9 190 182 179 182
94 72 77 49 25 18 14 10 31 55 40 15 351 1 21 73 169 182 185 184 165 166 193 227 264 274 261 254 220 187 216 230 201 192 224 222 228 225 220 45 61 150 159 164
50 65 38 40 21 7 0 1 21 17 16 9 347 344 356 20 21 18 68 91 99 195 255 254 267 276 269 257 201 204 232 236 228 201 193 248 231 208 196 220 222 214 215 195
30 15 84 33 14 348 346 341 357 8 23 9 29 57 55 47 37 22 5 354 330 305 289 288 292 286 279 261 211 217 294 323 273 226 206 189 215 212 190 211 216 220 149 298
16 28 32 28 13 6 13 5 9 353 355 4 20 18 36 40 356 319 306 303 311 296 300 311 291 276 286 356 102 94 63 262 255 216 169 209 212 182 220 218 227 221 204 199
40 28 17 18 17 13 19 18 30 18 22 12 349 341 341 335 335 345 341 325 304 296 297 297 282 294 290 20 115 127 171 312 287 202 201 214 199 198 226 235 242 243 226 195
55 49 36 35 23 12 1 7 6 1 6 352 348 347 345 344 323 326 329 331 331 317 310 288 291 310 358 111 137 172 176 214 220 247 234 209 198 184 229 234 237 230 202 152
71 50 36 46 31 10 0 349 1 2 5 359 351 333 355 342 329 321 323 319 310 303 303 311 339 317 156 202 176 217 232 161 158 206 222 233 187 192 210 221 211 208 180 152
59 46 46 42 29 12 343 335 340 352 339 336 334 347 342 326 317 308 299 289 280 280 312 328 359 25 22 346 293 287 294 213 242 214 198 221 211 196 196 219 193 189 164 161
56 27 44 27 0 348 337 325 331 335 312 316 316 303 295 291 295 291 301 304 316 344 344 343 56 21 357 343 311 280 249 257 224 211 205 203 208 194 193 201 190 177 164 167
40 50 18 345 344 323 307 293 302 311 309 301 302 308 311 311 318 319 316 23 326 2 344 43 30 14 352 332 310 310 300 271 232 216 199 213 216 191 187 194 192 183 174 169
21 357 341 329 311 293 290 295 300 308 306 298 306 290 297 312 312 328 343 324 17 341 10 37 7 360 343 327 333 317 310 298 282 221 203 208 204 188 180 185 190 196 173 166
343 305 286 282 300 296 304 328 359 307 324 315 315 350 122 358 323 326 330 0 345 356 89 24 4 346 328 329 324 314 301 292 286 249 193 192 199 183 177 180 179 204 187 172
290 296 292 288 281 258 318 21 341 347 338 328 338 6 27 2 19 340 344 324 38 21 48 7 336 332 340 337 326 316 313 278 266 244 185 201 207 194 181 173 169 152 247 233
281 280 291 286 278 68 13 24 346 328 358 348 345 17 20 28 13 3 359 17 25 23 17 326 332 341 333 325 334 329 333 309 250 222 200 203 198 195 155 146 168 177 212 258
325 358 7 359 12 15 34 357 338 350 29 12 349 13 41 29 9 4 2 0 3 350 331 326 326 337 322 331 344 344 357 356 8 18 101 142 130 139 148 137 193 248 246 249